Flight Track Log - Related Links

Times and Time Zones

All times are in EDT time to prevent confusion due to time zone crossing. See the USC105 flight status page for this flight to view local times or setup timezone preferences in your user account.

Time Position Orientation Groundspeed Altitude Reporting Facility
EDT Latitude Longitude Course Direction KTS MPH feet Rate Location/Type
Fri 00:15:50 42.2175 -83.5606 225° Southwest 115 132 1,500  Level FAA TRACON SMA TRACON (SMA)
Fri 00:16:09 42.2092 -83.5736 229° Southwest 120 138 1,700 600 Climbing FAA TRACON SMA TRACON (SMA)
Fri 00:16:30 42.2047 -83.5869 246° West 128 147 1,900 750 Climbing FAA TRACON SMA TRACON (SMA)
Fri 00:16:49 42.2056 -83.6014 274° West 121 139 2,200 1,050 Climbing FAA TRACON SMA TRACON (SMA)
Fri 00:17:10 42.2050 -83.6189 268° West 117 135 2,600 878 Climbing FAA TRACON SMA TRACON (SMA)
Fri 00:17:30 42.2036 -83.6328 262° West 120 138 2,800 615 Climbing FAA TRACON SMA TRACON (SMA)
Fri 00:17:49 42.2025 -83.6464 264° West 121 139 3,000 600 Climbing FAA TRACON SMA TRACON (SMA)
Fri 00:18:10 42.2011 -83.6647 264° West 125 144 3,200 750 Climbing FAA TRACON SMA TRACON (SMA)
Fri 00:18:29 42.2008 -83.6797 269° West 127 146 3,500 750 Climbing FAA TRACON SMA TRACON (SMA)
Fri 00:18:50 42.2006 -83.6981 269° West 127 146 3,700 600 Climbing FAA TRACON SMA TRACON (SMA)
Fri 00:19:09 42.2000 -83.7128 267° West 128 147 3,900 750 Climbing FAA TRACON SMA TRACON (SMA)
Fri 00:19:30 42.1994 -83.7278 267° West 128 147 4,200 732 Climbing FAA TRACON SMA TRACON (SMA)
Fri 00:19:50 42.1986 -83.7431 266° West 129 148 4,400 769 Climbing FAA TRACON SMA TRACON (SMA)
Fri 00:20:09 42.1986 -83.7614 270° West 126 145 4,700 900 Climbing FAA TRACON SMA TRACON (SMA)
Fri 00:20:30 42.1983 -83.7753 268° West 122 140 5,000 878 Climbing FAA TRACON SMA TRACON (SMA)
Fri 00:20:50 42.1972 -83.7889 264° West 120 138 5,300 750 Climbing FAA TRACON SMA TRACON (SMA)
Fri 00:21:10 42.1956 -83.8067 263° West 122 140 5,500 450 Climbing FAA TRACON SMA TRACON (SMA)
Fri 00:21:30 42.1944 -83.8211 264° West 125 144 5,600 450 Climbing FAA TRACON SMA TRACON (SMA)
Fri 00:21:50 42.1942 -83.8364 269° West 129 148 5,800 600 Climbing FAA TRACON SMA TRACON (SMA)
Fri 00:22:10 42.1939 -83.8561 269° West 134 154 6,000 300 Climbing FAA TRACON SMA TRACON (SMA)
Fri 00:22:30 42.1922 -83.8722 262° West 141 162 6,000  Level FAA TRACON SMA TRACON (SMA)
Fri 00:22:49 42.1911 -83.8906 265° West 155 178 6,000  Level FAA TRACON SMA TRACON (SMA)
Fri 00:23:10 42.1903 -83.9125 267° West 151 174 6,000  Level FAA TRACON SMA TRACON (SMA)
Fri 00:23:30 42.1897 -83.9283 267° West 137 158 6,000  Level FAA TRACON SMA TRACON (SMA)
Fri 00:23:50 42.1889 -83.9472 267° West 134 154 6,000  Level FAA TRACON SMA TRACON (SMA)
Fri 00:24:10 42.1875 -83.9631 263° West 136 157 6,000 308 Level FAA TRACON SMA TRACON (SMA)
Fri 00:24:29 42.1861 -83.9783 263° West 134 154 6,200  Climbing FAA TRACON SMA TRACON (SMA)
Fri 00:24:50 42.1853 -83.9964 266° West 129 148 6,000 -300 Descending FAA TRACON SMA TRACON (SMA)
Fri 00:25:09 42.1861 -84.0108 274° West 126 145 6,000  Level FAA TRACON SMA TRACON (SMA)
Fri 00:25:30 42.1897 -84.0267 287° West 137 158 6,000  Level FAA TRACON SMA TRACON (SMA)
Fri 00:25:50 42.1903 -84.0428 273° West 144 166 6,000  Level FAA TRACON SMA TRACON (SMA)
Fri 00:26:09 42.1878 -84.0628 260° West 143 165 6,000  Level FAA TRACON SMA TRACON (SMA)
Fri 00:26:30 42.1853 -84.0792 258° West 145 167 6,000  Level FAA TRACON SMA TRACON (SMA)
Fri 00:26:49 42.1825 -84.0961 258° West 148 170 6,000  Level FAA TRACON SMA TRACON (SMA)
Fri 00:27:10 42.1819 -84.1181 268° West 153 176 6,000  Level FAA TRACON SMA TRACON (SMA)
Fri 00:27:30 42.1817 -84.1361 269° West 155 178 6,000  Level FAA TRACON SMA TRACON (SMA)
Fri 00:27:51 42.1803 -84.1583 265° West 155 178 6,000  Level FAA TRACON SMA TRACON (SMA)
Fri 00:28:10 42.1789 -84.1764 264° West 155 178 6,000  Level FAA TRACON SMA TRACON (SMA)
Fri 00:28:29 42.1775 -84.1939 264° West 155 178 6,000  Level FAA TRACON SMA TRACON (SMA)
Fri 00:28:50 42.1756 -84.2164 263° West 156 180 6,000  Level FAA TRACON SMA TRACON (SMA)
Fri 00:29:10 42.1747 -84.2350 267° West 158 182 6,000  Level FAA TRACON SMA TRACON (SMA)
Fri 00:29:29 42.1739 -84.2533 266° West 159 183 6,000  Level FAA TRACON SMA TRACON (SMA)
Fri 00:29:50 42.1725 -84.2764 265° West 160 184 6,000  Level FAA TRACON SMA TRACON (SMA)
Fri 00:30:10 42.1714 -84.2947 265° West 159 183 6,000  Level FAA TRACON SMA TRACON (SMA)
Fri 00:30:30 42.1703 -84.3125 265° West 157 181 6,000  Level FAA TRACON SMA TRACON (SMA)
Fri 00:30:50 42.1694 -84.3342 267° West 153 176 6,000  Level FAA TRACON SMA TRACON (SMA)
Fri 00:31:09 42.1686 -84.3514 266° West 151 174 6,000  Level FAA TRACON SMA TRACON (SMA)
Fri 00:31:30 42.1681 -84.3686 268° West 150 173 6,000  Level FAA TRACON SMA TRACON (SMA)
Fri 00:31:50 42.1672 -84.3861 266° West 151 174 6,000  Level FAA TRACON SMA TRACON (SMA)
Fri 00:32:10 42.1656 -84.4072 264° West 148 170 6,000  Level FAA TRACON SMA TRACON (SMA)
Fri 00:32:30 42.1647 -84.4236 266° West 145 167 6,000  Level FAA TRACON SMA TRACON (SMA)
Fri 00:32:49 42.1639 -84.4403 266° West 145 167 6,000  Level FAA TRACON SMA TRACON (SMA)
Fri 00:33:10 42.1636 -84.4611 269° West 145 167 6,000  Level FAA TRACON SMA TRACON (SMA)
Fri 00:33:30 42.1631 -84.4775 267° West 143 165 6,000  Level FAA TRACON SMA TRACON (SMA)
Fri 00:33:50 42.1617 -84.4975 265° West 142 163 6,000  Level FAA TRACON SMA TRACON (SMA)
Fri 00:34:10 42.1611 -84.5139 267° West 141 162 6,000  Level FAA TRACON SMA TRACON (SMA)
Fri 00:34:30 42.1603 -84.5300 266° West 141 162 6,000  Level FAA TRACON SMA TRACON (SMA)
Fri 00:34:50 42.1594 -84.5422 265° West 141 162 6,000  Level FAA TRACON SMA TRACON (SMA)
Fri 00:35:30 42.1594 -84.5422 340° North 141 162 6,000 -56 Level FAA TRACON SMA TRACON (SMA)
Fri 00:36:37 42.1556 -84.6394 267° West 141 162 5,900 -47 Descending Chicago Center
Fri 00:37:38 42.1514 -84.6914 264° West 141 162 5,900  Level Chicago Center
Fri 00:38:39 42.1500 -84.7419 268° West 138 159 5,900  Level Chicago Center
Fri 00:39:40 42.1458 -84.7922 264° West 136 157 5,900  Level Chicago Center
Fri 00:40:40 42.1436 -84.8436 267° West 137 158 5,900  Level Chicago Center
Fri 00:41:41 42.1411 -84.8931 266° West 135 155 5,900  Level Chicago Center
Fri 00:42:42 42.1383 -84.9439 266° West 136 157 5,900  Level Chicago Center
Fri 00:43:43 42.1356 -84.9961 266° West 140 161 5,900  Level Chicago Center
Fri 00:44:43 42.1333 -85.0467 267° West 138 159 5,900  Level Chicago Center
Fri 00:45:44 42.1300 -85.0975 265° West 137 158 5,900  Level Chicago Center
Fri 00:46:45 42.1261 -85.1561 265° West 133 153 5,900  Level Chicago Center
Fri 00:47:46 42.1236 -85.2078 266° West 137 158 5,900  Level Chicago Center
Fri 00:48:46 42.1208 -85.2586 266° West 137 158 5,900  Level Chicago Center
Fri 00:49:47 42.1181 -85.3097 266° West 138 159 5,900  Level Chicago Center
Fri 00:50:48 42.1144 -85.3603 265° West 137 158 5,900  Level Chicago Center
Fri 00:51:48 42.1119 -85.4106 266° West 136 157 5,900  Level Chicago Center
Fri 00:52:49 42.1089 -85.4606 265° West 135 155 5,900  Level Chicago Center
Fri 00:53:50 42.1050 -85.5106 264° West 135 155 5,900  Level Chicago Center
Fri 00:54:50 42.1025 -85.5636 266° West 140 161 5,900  Level Chicago Center
Fri 00:55:51 42.0989 -85.6167 265° West 142 163 5,900 49 Level Chicago Center
Fri 00:56:52 42.0956 -85.6703 265° West 144 166 6,000  Climbing Chicago Center
Fri 00:57:52 42.0931 -85.7239 266° West 144 166 5,900 50 Descending Chicago Center
Fri 00:58:53 42.0933 -85.7736 270° West 139 160 6,100  Climbing Chicago Center
Fri 00:59:54 42.0961 -85.8183 275° West 124 143 5,900 -149 Descending Chicago Center
Fri 01:00:54 42.0914 -85.8714 263° West 120 138 5,800  Descending Chicago Center
Fri 01:01:55 42.0906 -85.9142 269° West 117 135 5,900 49 Climbing Chicago Center
Fri 01:02:56 42.0850 -85.9558 260° West 113 130 5,900  Level Chicago Center
Fri 01:03:56 42.0767 -85.9997 256° West 119 137 5,900 50 Level Chicago Center
Fri 01:04:57 42.0733 -86.0422 264° West 118 136 6,000 49 Climbing Chicago Center
Fri 01:05:58 42.0700 -86.0842 264° West 113 130 6,000  Level Chicago Center
Fri 01:06:58 42.0667 -86.1269 264° West 115 132 6,000 -50 Level Chicago Center
Fri 01:07:59 42.0639 -86.1719 265° West 119 137 5,900 -98 Descending Chicago Center
Fri 01:09:00 42.0625 -86.2158 268° West 119 137 5,800  Descending Chicago Center
Fri 01:10:00 42.0589 -86.2660 265° West  Level FlightAware Approximate
Fri 01:12:02 42.0531 -86.3311 264° West 104 120 5,900  Level Chicago Center
Fri 01:13:02 42.0503 -86.3806 266° West 124 143 6,000 50 Climbing Chicago Center
Fri 01:14:03 42.0472 -86.4367 266° West 144 166 6,000  Level Chicago Center
Fri 01:15:03 42.0419 -86.4931 263° West 151 174 6,000  Level Chicago Center
Fri 01:16:04 42.0378 -86.5478 264° West 149 171 6,000  Level Chicago Center
Fri 01:17:00 42.0332 -86.6168 264° West  Level FlightAware Approximate
Fri 01:17:04 42.0344 -86.6025 265° West 147 169 6,000  Level Chicago Center
Fri 01:18:05 42.0317 -86.6536 266° West 138 159 5,900 -50 Descending Chicago Center
Fri 01:19:05 42.0289 -86.7047 266° West 123 142 5,900 50 Level Chicago Center
Fri 01:20:05 42.0253 -86.7489 264° West 120 138 6,000  Climbing Chicago Center
Fri 01:21:06 42.0208 -86.7997 263° West 137 158 5,900  Descending Chicago Center
Fri 01:22:06 42.0167 -86.8525 264° West 142 163 6,000  Climbing Chicago Center
Fri 01:23:07 42.0133 -86.9072 265° West 146 168 5,900 -50 Descending Chicago Center
Fri 01:24:07 42.0094 -86.9608 264° West 145 167 5,900  Level Chicago Center
Fri 01:25:08 42.0053 -87.0136 264° West 144 166 5,900  Level Chicago Center
Fri 01:26:08 42.0014 -87.0669 264° West 145 167 5,900 50 Level Chicago Center
Fri 01:27:09 41.9972 -87.1197 264° West 143 165 6,000 50 Climbing Chicago Center
Fri 01:28:09 41.9933 -87.1733 264° West 146 168 6,000  Level Chicago Center
Fri 01:29:10 41.9903 -87.2258 266° West 143 165 6,000 -50 Level Chicago Center
Fri 01:30:10 41.9850 -87.2908 264° West 146 168 5,900 -50 Descending Chicago Center
Fri 01:31:10 41.9811 -87.3431 264° West 143 165 5,900 62 Level Chicago Center
Fri 01:31:47 41.9833 -87.3833 274° West 144 166 6,000 62 Climbing Chicago TRACON
Fri 01:32:47 41.9667 -87.4333 246° West 146 168 6,000 -53 Level Chicago TRACON
Fri 01:33:41 41.9667 -87.4833 270° West 146 168 5,900 -53 Descending Chicago TRACON
Fri 01:34:41 41.9667 -87.5333 270° West 142 163 5,900  Level Chicago TRACON
Fri 01:35:41 41.9667 -87.5833 270° West 145 167 5,900  Level Chicago TRACON
Fri 01:36:41 41.9500 -87.6333 246° West 149 171 5,900  Level Chicago TRACON
Fri 01:37:41 41.9500 -87.6833 270° West 143 165 5,900 50 Level Chicago TRACON
Fri 01:38:42 41.9500 -87.7500 270° West 142 163 6,000  Climbing Chicago TRACON
Fri 01:39:48 41.9500 -87.8000 270° West 142 163 5,900 -48 Descending Chicago TRACON
Fri 01:40:48 41.9333 -87.8500 246° West 139 160 5,900  Level Chicago TRACON
Fri 01:41:48 41.9333 -87.9000 270° West 142 163 5,900  Level Chicago TRACON
Fri 01:42:42 41.9333 -87.9500 270° West 145 167 5,900  Level Chicago TRACON
Fri 01:43:42 41.9333 -88.0000 270° West 135 155 5,900 -550 Level Chicago TRACON
Fri 01:44:42 41.9167 -88.0500 246° West 154 177 4,800 -950 Descending Chicago TRACON
Fri 01:45:42 41.9167 -88.1000 270° West 145 167 4,000 -830 Descending Chicago TRACON
Fri 01:46:16 41.9153 -88.1308 267° West 147 169 3,500 -1,074 Descending Chicago Center
Fri 01:47:17 41.9114 -88.1811 264° West 144 166 2,300 -1,190 Descending Chicago Center
Fri 01:48:17 41.9103 -88.2281 268° West 124 143 1,100 -700 Descending Chicago Center
Fri 01:49:17 41.9094 -88.2592 268° West 117 135 900 -200 Descending Chicago Center

Login

Don't have an account? Register now (free) for customized features, flight alerts, and more!